Theta_e
336 335 335 338 346 349 350 350 350 350 350 350 351 350 350 350 349 349 348 348 348 348 348 347 346 345 344 343 343 343 343 343 343 342 342 343 343 343 344 345 346 347 348 349 350 350 351 351 350 351 350 350 348 349 349 349 349 350 350 350 350 350 350 349 350 350 350 351 350 350 350 350 350 351 351 352 352 352 350 349 349 350 349 350 352
331 336 337 339 344 348 350 349 350 349 350 350 350 350 350 350 349 348 347 347 347 348 347 347 346 345 344 343 343 343 343 343 343 343 342 343 343 343 344 344 345 347 348 350 350 351 351 351 350 350 349 347 347 348 348 348 349 349 351 350 350 350 350 350 350 350 349 349 348 349 349 349 350 351 352 352 352 351 349 348 348 349 349 351 351
326 334 339 340 342 347 350 349 350 350 350 350 350 350 349 349 349 348 347 347 347 347 346 345 345 344 343 343 343 343 343 343 343 343 344 344 343 344 344 345 345 347 348 349 350 350 350 350 351 349 348 348 347 347 347 347 349 350 351 350 351 350 351 350 350 350 349 349 348 348 346 348 350 351 351 351 352 351 348 348 348 348 349 350 350
326 335 338 339 340 344 349 350 350 350 350 350 350 350 350 350 350 350 347 347 346 346 346 345 344 343 342 343 343 343 343 344 345 344 345 344 344 344 344 345 345 347 347 349 350 350 349 351 351 351 347 345 346 347 348 348 349 350 350 351 351 351 351 350 350 349 348 348 347 345 346 348 349 350 351 351 351 350 347 347 348 349 350 350 350
324 332 337 339 342 342 347 349 350 350 349 349 350 348 348 350 350 350 348 347 346 346 346 345 344 343 342 342 342 343 344 345 346 346 345 345 345 344 345 345 345 346 348 349 350 349 350 350 351 350 349 347 345 346 347 348 348 348 350 350 350 351 350 350 349 348 347 345 345 345 348 348 348 348 349 350 351 349 347 348 349 349 349 349 350
325 329 334 338 339 340 342 347 349 349 349 349 349 348 348 349 350 351 350 348 346 346 346 345 344 343 343 342 343 343 345 345 345 345 346 346 346 346 345 345 346 347 349 349 349 349 351 351 350 348 348 344 345 345 347 347 347 348 348 349 349 350 349 348 348 346 345 342 342 347 349 349 347 347 348 350 352 349 349 348 348 349 348 349 348
325 328 332 335 337 337 337 344 347 348 349 348 348 348 348 349 350 351 350 348 346 346 346 345 344 344 343 342 343 344 344 344 344 344 345 346 347 347 346 346 346 348 349 349 349 349 350 347 346 347 348 346 345 345 346 346 347 347 348 348 348 348 348 347 345 344 342 343 346 347 347 349 348 347 349 350 351 350 348 348 348 348 348 348 347
323 326 329 333 335 336 337 341 343 346 347 348 348 348 348 348 348 349 349 349 347 345 345 345 344 344 343 344 342 342 343 342 343 343 344 346 347 347 347 347 347 348 350 350 350 349 350 345 347 348 349 345 345 345 343 344 345 346 347 347 347 347 346 345 343 341 339 343 345 346 347 348 347 346 349 349 350 349 348 348 348 348 348 347 344
323 324 326 330 333 334 336 339 341 343 345 347 347 348 347 347 348 348 348 348 347 346 344 343 343 343 343 343 341 342 341 340 340 342 343 345 346 347 347 348 348 348 349 350 349 349 348 346 346 348 348 345 343 345 345 345 345 346 346 346 346 345 344 342 340 338 340 342 344 346 347 347 347 346 347 349 349 347 347 347 346 348 347 344 344
323 323 325 327 331 332 335 338 341 343 344 346 346 346 346 347 347 347 347 348 346 345 344 343 342 343 345 343 340 339 341 341 341 341 342 345 346 347 347 347 347 348 349 350 348 348 349 349 349 348 347 345 343 344 344 345 345 345 345 346 345 344 342 340 338 338 341 343 345 347 347 342 346 345 346 348 348 347 345 342 342 342 343 344 343
320 323 324 324 327 331 335 338 340 342 343 344 345 345 345 346 346 347 347 347 347 346 343 346 345 343 343 341 339 340 340 340 340 340 341 343 343 345 347 347 347 348 349 350 348 349 347 347 346 344 345 344 343 342 343 344 343 344 344 345 344 343 341 339 338 342 343 344 345 345 342 339 344 345 347 347 347 347 342 341 340 342 344 345 345
319 320 323 324 324 330 334 338 339 341 342 343 343 344 344 345 345 346 347 347 345 344 348 345 344 343 342 342 341 341 340 339 339 340 340 343 344 344 346 346 346 348 348 349 347 349 349 349 346 348 345 343 343 342 343 343 343 344 344 344 343 341 339 337 340 342 343 343 343 344 343 342 342 343 345 346 346 346 343 343 345 344 344 343 342
318 318 322 325 328 329 333 337 338 340 342 342 343 343 344 344 344 345 346 347 346 348 346 344 342 341 341 341 341 341 340 339 339 341 340 341 342 343 345 345 345 347 348 347 346 349 347 344 344 345 343 343 342 342 342 341 342 343 343 343 341 339 336 335 340 341 342 343 342 343 343 343 342 343 346 345 346 345 345 344 344 343 344 344 343
316 318 321 324 327 326 332 335 338 339 341 342 343 343 343 343 344 344 344 346 347 347 345 343 342 341 341 340 340 340 340 341 341 341 341 341 342 343 343 344 344 346 346 347 347 344 346 343 345 344 343 341 342 342 341 342 342 343 342 341 339 337 333 333 336 339 340 341 341 343 343 342 342 344 345 345 346 345 344 342 342 343 343 343 342
316 317 320 324 325 328 327 334 336 338 339 341 342 342 342 342 343 343 344 345 347 346 344 343 342 342 341 340 340 341 341 340 340 341 341 340 341 342 344 344 345 345 346 345 346 344 341 345 344 342 342 342 342 341 341 341 342 342 341 339 337 335 333 336 338 340 340 339 340 341 344 343 341 343 344 345 344 344 343 342 342 341 341 341 341
316 318 321 323 325 327 329 329 332 335 336 339 340 341 341 341 342 342 343 344 346 346 344 342 341 341 340 340 340 340 340 340 340 340 340 340 340 342 344 343 344 345 345 346 345 345 340 344 343 342 341 341 341 341 341 341 341 340 339 337 334 332 330 331 338 339 338 338 339 341 343 340 341 342 343 343 343 343 342 341 339 340 340 340 340
318 320 321 323 324 326 329 330 331 329 331 333 335 337 339 340 341 341 343 344 345 345 343 341 341 340 339 339 339 339 340 339 339 339 340 339 339 342 342 342 344 344 343 344 344 345 344 345 343 341 340 340 340 341 340 340 340 337 335 334 332 331 328 329 337 337 337 337 338 339 341 340 338 340 342 344 342 343 340 339 339 339 339 339 339
320 322 323 324 325 325 327 329 330 331 333 332 330 332 335 337 338 338 338 342 343 343 341 340 340 339 338 338 337 336 336 339 340 339 339 339 340 341 341 341 341 341 340 341 342 341 341 340 339 341 340 339 340 341 339 339 337 334 333 332 330 328 326 325 334 334 335 334 337 336 340 336 338 340 342 340 341 340 339 339 339 339 338 338 337
320 321 324 325 325 325 326 327 328 330 332 333 335 335 330 333 334 335 335 339 340 339 338 337 336 335 335 334 333 330 330 331 334 336 338 337 336 336 338 338 337 340 339 337 340 338 339 339 340 340 339 339 339 338 338 337 335 333 332 330 327 324 322 326 331 332 334 336 337 337 340 336 338 339 339 339 340 339 339 339 338 338 337 336 336
319 321 323 326 327 328 328 327 328 329 331 332 333 334 329 327 330 332 334 337 337 336 335 334 330 328 328 328 326 330 327 332 325 334 332 335 332 333 333 338 337 337 338 339 340 340 339 339 338 338 338 337 337 336 335 334 333 331 328 326 323 321 328 327 327 327 331 334 337 340 335 337 338 338 340 338 338 338 339 338 337 337 337 336 334
318 320 322 325 327 327 328 329 329 329 330 331 332 333 333 327 328 327 329 331 333 332 332 328 323 322 322 322 321 332 334 335 336 339 326 338 326 325 331 336 337 336 336 338 339 338 338 339 338 338 337 335 332 331 330 332 331 329 327 323 320 325 325 325 325 325 327 331 335 339 334 336 338 336 337 338 337 337 338 337 336 336 336 335 334
316 318 321 324 325 327 327 327 329 329 330 330 331 331 332 330 335 335 334 332 329 327 330 332 322 333 321 328 332 332 333 333 334 327 335 333 329 319 323 333 336 335 334 336 337 337 337 337 338 338 336 332 328 330 329 326 326 325 322 320 323 322 323 323 324 325 327 329 333 335 334 335 337 337 337 336 336 335 335 335 334 335 334 334 332
315 317 320 323 325 326 327 326 327 329 329 330 330 331 331 332 334 334 334 329 328 328 332 329 331 331 330 330 329 331 331 332 332 330 330 322 330 320 323 328 334 333 333 334 336 337 337 337 337 337 335 329 329 329 329 326 322 317 316 322 322 322 322 323 322 323 325 329 334 330 334 334 335 337 336 335 335 334 334 334 333 333 333 332 332
314 317 318 322 324 325 325 326 327 328 329 329 330 330 330 331 332 333 333 333 331 329 329 329 329 329 329 330 330 330 329 330 319 316 318 330 328 319 322 324 326 327 327 330 333 335 337 336 335 333 329 325 326 326 325 322 321 321 321 321 321 321 322 322 321 323 327 328 333 329 334 333 334 335 335 334 335 334 334 333 333 332 332 331 330
314 317 319 320 323 324 325 326 327 328 328 329 329 329 330 330 331 331 331 331 330 328 329 328 328 328 329 330 330 329 327 329 327 327 327 329 329 330 328 330 329 330 325 333 332 332 331 333 330 326 327 325 324 323 321 320 320 320 320 320 320 320 321 320 321 323 327 331 333 328 331 333 333 334 335 334 334 333 332 332 332 331 331 330 329
314 315 316 319 322 324 325 325 326 327 327 329 328 329 329 328 328 329 329 328 329 327 327 327 326 328 329 329 328 328 327 326 326 326 327 328 328 328 327 329 327 327 328 328 327 327 325 323 323 322 321 322 322 321 320 319 319 320 319 320 320 320 319 320 321 323 326 331 331 325 328 332 333 333 334 335 334 334 333 332 332 331 330 329 329
312 314 316 318 321 323 325 325 325 326 327 329 329 328 327 329 329 327 327 326 327 326 325 325 326 327 328 327 328 327 326 325 324 324 325 325 326 325 324 328 327 324 325 324 324 324 323 322 321 320 320 320 319 320 320 320 319 319 319 319 320 319 319 319 320 321 325 328 325 323 325 328 332 332 333 334 334 333 333 332 331 331 329 330 329
312 312 315 317 319 322 325 325 325 326 326 328 329 326 327 328 327 324 326 325 325 326 326 325 326 327 327 326 327 328 326 324 323 323 324 324 324 323 324 324 325 323 321 321 321 322 322 320 319 319 319 319 319 319 318 318 319 320 319 319 319 318 318 319 320 321 323 324 327 323 323 326 329 331 332 334 334 333 333 332 331 330 330 330 329
310 311 313 316 318 321 324 325 325 325 326 327 328 327 327 328 326 324 325 323 325 326 326 325 324 325 326 326 327 326 326 325 323 324 324 324 324 324 324 323 323 322 319 318 319 319 321 320 319 318 318 317 317 317 317 317 318 319 318 318 318 318 317 318 319 320 322 324 327 325 321 325 330 331 331 332 333 333 333 331 330 330 330 329 329
310 311 313 315 317 321 324 324 325 325 326 327 327 327 327 326 325 324 325 322 325 327 326 324 324 324 323 325 326 328 326 325 324 324 324 324 324 324 325 323 322 321 319 317 317 319 321 320 318 317 317 317 317 316 317 317 317 317 317 316 317 316 318 319 319 321 322 323 325 327 318 322 327 332 331 330 332 332 333 331 329 329 329 328 328
310 311 312 314 316 320 323 324 325 325 326 326 327 327 326 326 325 325 325 323 325 325 324 324 324 323 324 324 325 327 327 326 325 325 325 323 323 323 324 323 322 320 319 317 317 317 318 319 318 317 317 317 316 316 317 316 316 316 317 317 315 315 315 316 319 320 319 319 321 324 325 320 323 327 329 331 330 331 331 331 329 328 328 328 327
308 310 312 314 316 319 321 324 325 325 325 326 326 326 326 326 325 325 325 324 325 324 324 323 322 323 324 324 325 326 326 326 326 325 324 322 322 323 322 322 321 319 317 316 316 316 316 316 317 317 317 316 316 316 317 316 315 315 316 315 315 315 316 317 317 317 317 317 319 321 323 322 319 324 326 329 329 329 329 331 329 326 327 328 327
304 308 310 313 315 317 319 323 325 325 325 325 326 326 327 326 326 325 326 325 324 324 323 323 323 323 323 324 325 325 325 325 325 325 323 323 321 321 319 320 319 318 316 316 316 315 315 315 314 315 315 315 315 314 315 315 313 313 314 314 314 314 314 316 315 315 315 316 318 321 322 322 323 318 320 323 328 329 329 329 328 327 328 327 325
300 302 307 311 314 316 319 321 324 325 324 325 326 326 326 326 325 325 324 324 324 323 323 324 323 323 322 323 324 325 324 325 325 324 323 322 320 318 318 317 317 316 316 315 315 315 315 314 313 315 312 314 314 313 313 313 312 312 312 312 313 312 313 313 313 312 312 312 312 315 320 321 322 324 323 318 322 325 328 328 327 327 325 325 324
299 299 301 306 310 315 318 320 323 325 324 324 324 326 326 325 325 325 324 323 324 324 324 324 323 322 322 322 323 323 323 324 325 323 320 321 320 319 318 317 317 316 315 315 314 314 314 314 314 314 314 314 313 311 312 311 311 311 311 311 310 310 311 310 310 310 311 310 312 315 318 319 321 322 322 323 314 319 325 327 327 326 325 325 324
299 299 299 303 308 313 317 319 322 323 325 324 325 325 325 325 325 320 324 324 324 324 324 323 323 323 321 322 322 323 322 323 323 323 320 320 320 319 317 316 316 316 315 314 314 313 314 314 314 314 312 311 311 309 310 310 309 308 309 310 310 310 310 310 309 308 308 310 311 312 314 317 320 320 315 319 321 317 319 323 326 326 325 325 325
299 299 300 302 305 309 315 317 320 322 324 325 324 325 325 325 325 324 324 324 324 324 324 323 322 321 321 321 322 322 322 322 322 322 321 320 319 318 315 315 316 316 314 314 314 314 314 313 313 313 313 311 310 308 308 308 307 308 309 309 308 310 310 311 310 309 308 310 309 310 311 314 316 311 316 317 319 320 317 320 324 324 322 324 325
300 300 301 303 305 309 314 316 319 322 323 324 324 324 324 325 324 324 322 323 323 323 323 322 321 321 321 321 322 321 321 321 322 321 320 319 318 316 313 313 316 316 314 313 313 312 313 313 312 312 312 312 309 308 307 308 307 306 306 308 308 308 309 309 309 307 310 309 309 310 311 311 315 315 316 315 315 317 319 317 316 317 317 324 327
299 300 301 304 306 309 312 316 317 320 322 323 323 322 323 324 324 323 322 322 322 323 323 322 321 321 321 321 322 321 319 321 320 320 320 318 317 315 312 313 315 315 314 313 310 310 311 311 311 310 310 312 311 310 308 307 305 303 303 302 303 304 305 306 307 309 308 308 307 308 309 310 311 314 314 313 313 315 316 318 320 323 323 320 326
300 300 300 302 304 306 310 314 317 320 321 321 321 321 322 320 320 321 320 320 321 320 322 322 322 321 320 321 321 321 319 318 319 320 319 318 317 315 313 313 314 314 314 311 309 309 310 309 310 309 309 308 309 308 307 304 302 300 299 299 299 302 303 304 305 306 306 306 306 307 307 307 309 311 312 312 313 313 312 312 312 317 320 319 319
300 300 300 300 302 305 307 310 314 318 319 319 318 318 318 318 319 319 319 319 320 320 320 321 321 321 320 320 321 320 319 318 318 319 318 314 316 315 314 312 312 312 312 311 310 310 310 310 309 308 308 306 305 306 306 305 302 298 299 299 299 297 299 301 303 303 304 304 305 306 306 308 308 308 308 309 310 309 309 310 312 313 315 317 316
298 299 299 300 301 303 305 308 312 315 318 319 319 317 317 318 319 319 319 320 319 318 318 320 320 320 320 320 319 320 319 317 317 318 317 316 314 314 313 312 311 311 312 310 310 307 308 308 308 307 308 307 305 306 305 308 305 302 300 296 297 299 296 296 299 299 301 303 304 305 306 307 307 305 304 306 306 307 308 310 312 311 310 312 313
298 299 300 300 300 301 303 306 310 313 316 318 319 318 318 319 319 320 320 320 321 320 319 319 319 320 319 319 318 319 318 317 317 317 316 316 315 315 314 313 312 311 310 308 308 307 307 307 308 307 306 306 305 306 307 311 304 304 302 300 298 299 299 298 294 293 295 301 303 304 304 305 304 304 305 306 306 306 306 308 310 310 308 308 309
298 299 299 299 299 300 300 302 305 309 313 316 316 318 318 319 320 320 321 321 320 319 319 319 318 318 317 318 318 318 318 317 316 316 316 315 315 315 315 314 313 312 311 308 308 307 307 307 308 307 307 302 302 302 307 308 303 302 300 301 298 300 295 296 294 293 289 294 301 302 303 303 300 299 303 306 305 306 306 307 308 307 305 304 305
297 299 299 299 299 299 299 300 302 305 309 312 316 318 318 316 317 319 318 318 318 317 316 316 317 316 316 316 317 318 317 317 316 316 315 315 314 313 313 313 314 312 311 309 308 308 308 308 308 307 307 306 303 303 302 302 305 310 302 295 294 296 298 297 294 295 292 297 296 297 299 299 299 299 301 299 299 302 304 304 302 303 304 304 304
296 298 299 299 298 299 299 299 301 302 305 309 313 316 316 315 315 313 313 314 313 313 312 313 314 314 315 317 318 318 317 317 316 316 316 315 314 313 314 313 312 311 311 310 309 307 307 307 308 308 307 307 306 303 301 299 305 307 306 307 301 297 297 294 300 297 291 291 292 291 293 293 293 295 295 296 297 297 299 302 300 302 302 304 303
296 298 298 298 297 298 298 298 299 300 303 305 309 312 315 316 316 315 314 314 313 314 317 317 316 317 318 318 317 317 317 316 315 316 316 315 314 313 313 313 311 311 310 310 309 308 307 308 307 307 308 306 306 304 302 300 298 300 303 299 296 297 300 298 298 294 294 295 293 291 293 292 290 292 293 293 294 296 296 296 298 298 297 296 297
295 297 296 296 296 296 297 297 298 298 301 303 305 307 310 314 315 316 314 313 314 315 316 317 318 315 316 317 317 316 316 316 315 315 315 314 314 313 313 312 311 311 309 310 309 309 308 308 307 308 307 306 306 305 302 300 300 300 299 295 295 301 302 304 304 300 299 296 293 290 291 291 291 291 291 292 292 295 295 293 294 294 294 294 294
295 295 295 295 295 295 296 296 296 297 298 300 301 303 306 309 312 314 315 314 315 315 316 317 317 317 315 316 316 315 315 315 315 315 314 314 311 312 312 312 311 310 308 310 309 309 308 307 306 306 306 307 307 306 303 301 302 301 295 293 297 299 302 299 300 297 299 297 296 294 292 290 292 292 291 291 291 292 293 294 293 294 294 294 293
294 294 294 294 294 294 294 295 295 296 297 298 300 302 303 305 309 312 313 314 315 315 316 316 316 317 315 314 314 314 314 314 314 314 314 313 312 312 311 311 311 310 307 310 309 308 308 308 307 307 307 306 306 306 303 302 303 300 300 298 297 296 297 296 299 298 297 301 295 293 295 291 291 291 291 292 291 291 291 291 293 293 294 294 293
292 293 293 293 293 294 294 294 295 296 296 297 298 300 302 304 306 310 312 313 314 315 314 313 315 315 315 314 313 313 313 313 314 313 313 313 312 311 310 310 310 308 306 309 307 308 308 308 307 307 306 306 306 306 304 302 303 299 298 295 299 298 297 297 298 298 297 294 294 296 295 296 297 290 290 290 291 292 291 291 292 292 293 293 292
Wind_Speed
7 7 5 7 9 12 14 15 14 14 14 13 13 13 14 13 13 12 12 11 11 10 10 10 10 9 9 9 10 9 9 9 9 9 9 9 9 9 9 10 10 11 12 12 13 12 13 13 13 17 15 16 20 19 20 21 21 21 20 20 19 18 18 18 16 16 15 15 15 16 16 14 15 15 16 16 15 13 11 12 12 13 13 16 18
3 6 5 6 9 11 14 15 15 15 15 14 13 14 14 14 13 13 13 12 11 11 11 11 11 11 11 10 10 11 11 10 10 10 10 10 10 10 10 10 11 11 12 13 13 13 13 13 13 17 19 19 20 18 20 22 21 20 19 17 18 17 17 17 15 13 12 13 13 13 14 15 14 15 16 16 16 13 10 9 10 12 11 18 16
3 4 5 6 8 10 13 16 16 15 15 14 14 14 13 13 12 12 12 12 12 12 12 12 12 12 11 11 11 12 12 11 11 11 11 11 11 10 10 11 11 12 13 14 15 14 14 14 14 17 15 16 19 20 19 20 19 17 17 16 14 15 14 16 15 13 12 11 12 11 12 13 13 14 16 16 16 13 11 10 9 13 14 19 16
2 6 6 7 9 9 12 14 15 15 15 14 14 14 12 11 11 11 13 13 13 13 13 12 12 12 12 12 13 13 12 12 12 11 11 12 12 11 10 11 12 12 13 14 15 15 14 14 17 18 21 20 18 17 21 18 15 14 15 13 13 14 15 15 15 14 13 11 11 11 9 10 11 14 17 17 17 16 11 10 9 15 19 18 19
5 4 6 8 6 6 10 9 13 14 15 14 14 13 13 12 12 11 12 13 13 12 12 12 13 12 12 13 13 13 13 13 12 12 12 12 12 12 11 11 12 13 13 15 15 15 14 15 17 21 20 19 19 19 19 21 21 17 15 14 14 15 16 15 14 14 12 10 8 7 8 10 10 13 16 18 17 14 11 11 13 17 19 20 19
5 4 4 6 4 4 6 9 9 15 15 15 14 15 15 13 10 11 11 12 12 12 12 12 12 11 12 12 12 13 13 13 12 12 11 12 13 12 11 11 12 14 14 15 16 14 14 11 17 20 21 18 16 16 17 22 19 18 16 16 16 15 15 15 13 13 12 9 8 5 8 9 10 10 17 18 18 14 14 16 18 18 18 20 20
5 4 5 4 5 4 3 9 6 12 15 16 15 14 14 11 9 9 10 12 12 12 12 11 11 11 12 11 12 13 12 12 11 11 11 12 13 13 12 12 13 14 16 16 16 15 14 16 17 21 22 20 19 20 20 20 19 17 17 17 18 15 15 14 13 13 10 8 5 5 8 9 9 8 18 19 19 17 18 19 20 20 19 18 18
4 5 6 6 4 5 6 6 5 5 13 15 16 14 13 11 9 5 6 9 11 12 12 11 10 11 11 12 8 7 8 9 10 11 11 11 12 12 13 13 14 15 16 17 17 15 14 16 18 19 21 19 18 20 18 19 19 19 17 18 18 16 15 14 13 10 9 6 4 4 8 8 10 9 17 19 20 20 20 20 19 20 18 18 15
6 6 6 6 6 7 7 6 6 6 6 12 14 11 12 12 9 7 7 8 10 12 12 11 10 10 12 6 5 7 6 8 9 15 11 10 11 12 14 14 15 15 17 18 18 15 15 18 19 22 23 21 24 22 20 20 20 19 19 17 18 16 14 15 13 11 7 4 4 5 6 8 10 10 15 20 20 19 18 17 19 19 17 15 13
5 4 6 6 7 11 10 9 9 7 6 7 12 12 12 10 9 9 9 10 12 13 12 12 8 2 6 3 4 7 8 9 10 10 12 9 10 13 14 14 15 16 17 19 19 16 20 20 21 20 22 22 23 23 22 21 20 18 18 18 16 15 14 13 11 9 6 7 8 6 6 5 9 9 15 20 20 21 17 11 11 11 11 12 15
5 4 4 5 7 11 12 12 10 9 7 7 10 12 10 11 10 10 10 12 14 13 12 4 6 5 5 7 7 7 10 10 10 9 8 10 12 12 12 12 15 16 17 19 19 17 18 21 19 19 23 25 22 21 22 21 21 20 19 17 16 15 14 11 10 6 9 9 9 8 6 5 8 9 18 21 21 19 15 14 13 13 16 18 20
5 3 3 3 5 10 10 10 10 9 8 7 7 10 12 11 9 9 11 12 14 12 6 6 6 6 5 6 7 9 10 11 9 10 10 9 9 11 10 10 14 15 16 18 17 16 19 15 18 21 22 22 22 23 22 22 22 20 19 18 15 14 13 9 6 6 10 10 9 9 8 8 11 11 20 23 22 20 18 16 17 20 22 21 21
4 2 3 3 4 6 8 9 8 8 9 8 10 11 11 12 10 9 9 11 14 9 9 9 7 6 6 6 9 11 11 10 10 10 11 10 8 11 10 8 11 14 15 17 17 18 19 19 22 21 22 22 21 20 21 22 21 21 19 17 15 13 10 10 6 7 9 9 7 6 9 6 7 15 22 23 24 22 22 21 21 20 20 21 21
3 2 3 4 4 5 7 8 9 9 9 9 10 10 12 13 11 10 9 8 8 8 9 9 9 9 9 9 9 9 11 13 13 12 12 11 10 10 11 10 12 14 14 15 16 18 18 20 20 21 20 23 23 23 23 23 23 23 22 18 17 15 13 8 8 7 7 6 5 4 6 7 11 18 22 22 22 22 20 20 20 22 21 20 21
4 3 3 4 5 6 8 9 8 9 10 9 9 9 12 13 11 11 9 4 7 9 9 9 9 10 10 10 10 9 12 12 13 13 12 11 12 11 13 12 13 13 13 14 17 18 18 21 19 21 24 26 24 23 22 22 22 19 17 18 15 15 14 7 5 7 7 6 4 5 5 6 11 18 21 21 24 23 20 21 19 21 22 21 22
3 3 4 5 6 6 6 8 10 10 9 8 8 8 9 12 11 10 8 4 7 11 11 10 10 9 10 10 9 9 10 11 11 12 11 11 12 12 12 11 11 12 13 15 19 20 20 21 23 24 21 21 23 24 22 22 22 17 17 15 14 15 13 9 6 7 6 5 4 3 4 9 12 19 20 23 24 24 22 23 22 23 23 22 22
3 3 4 6 6 7 7 6 8 10 9 8 8 8 9 10 11 9 6 5 8 11 12 11 11 10 10 9 9 9 8 11 11 11 11 11 13 10 10 11 11 10 11 14 18 19 21 23 24 25 24 23 24 21 22 22 18 16 12 11 12 12 11 10 7 6 6 6 5 3 2 9 15 17 20 21 23 24 23 22 22 22 22 22 20
4 5 6 6 7 7 7 7 7 7 7 7 8 9 10 11 11 9 7 8 10 11 12 11 11 9 8 8 8 7 6 8 10 11 12 12 12 9 9 6 9 13 12 10 16 18 23 21 20 23 23 23 21 22 22 20 19 18 12 11 10 12 10 10 7 6 6 7 5 1 0 8 14 17 20 22 23 23 23 23 22 23 23 21 20
5 7 7 8 8 6 7 7 7 6 7 8 6 8 11 11 11 9 8 9 11 12 12 11 9 8 7 8 7 6 7 7 8 11 12 13 10 7 8 8 5 9 11 7 17 14 16 21 25 25 26 24 24 22 21 19 20 16 16 11 14 12 11 7 6 6 6 6 7 3 3 12 13 18 19 19 22 21 21 21 22 22 22 20 19
6 8 8 8 8 8 7 6 6 7 7 8 8 8 8 10 10 11 9 10 12 13 13 12 10 7 6 7 7 6 5 6 8 9 12 11 8 6 7 11 11 6 14 11 19 23 22 20 20 23 23 23 23 22 18 15 14 12 11 10 14 15 7 5 8 7 5 5 5 4 6 11 17 17 20 20 20 21 20 20 20 22 21 20 19
6 9 9 8 10 10 11 9 8 7 8 9 8 10 8 11 10 12 11 13 12 13 13 12 10 8 5 6 7 6 4 3 6 7 10 7 3 3 8 12 16 12 12 17 22 23 23 23 22 21 21 21 18 20 18 17 15 12 12 11 12 6 5 7 7 6 5 4 4 4 9 10 14 18 19 20 22 21 21 19 19 20 22 21 20
7 7 10 10 10 10 11 13 10 11 9 8 8 8 6 9 8 7 9 11 12 11 10 9 9 7 7 5 4 4 3 4 4 5 5 5 4 8 5 11 14 14 9 12 19 23 21 19 18 20 22 21 22 13 12 14 16 14 11 10 7 6 7 8 7 5 6 4 3 5 9 10 13 18 18 19 20 19 20 20 20 21 21 20 20
7 8 8 11 11 10 11 12 13 11 10 10 9 9 9 8 8 8 8 10 10 11 7 9 6 7 6 4 3 3 4 4 5 6 6 5 6 6 4 2 9 14 14 13 16 18 20 21 21 20 20 21 13 8 8 8 9 13 9 6 5 5 6 6 7 6 5 4 3 6 10 15 14 16 19 19 20 19 18 19 19 19 19 20 19
11 9 8 7 10 10 14 13 12 12 10 9 8 8 8 7 8 8 7 7 8 7 7 7 6 7 6 4 4 4 4 3 4 8 5 4 4 7 9 12 8 8 16 10 14 16 19 20 18 18 14 9 7 7 9 8 8 6 5 5 5 5 5 4 5 6 5 4 2 5 9 15 16 17 19 20 21 20 19 20 19 19 19 20 20
7 7 6 8 12 13 11 11 12 11 12 9 9 9 8 7 7 8 6 6 7 7 5 7 7 8 6 5 5 4 4 4 4 5 7 9 4 4 8 7 3 2 7 9 7 8 9 9 9 9 8 8 8 8 9 9 7 6 6 5 6 6 5 4 5 5 5 5 3 3 7 12 17 17 19 21 22 20 20 20 20 19 20 19 19
4 7 12 8 12 12 12 10 11 12 12 11 9 9 9 8 8 9 8 7 6 8 7 6 7 7 6 6 5 5 4 5 5 5 4 6 6 4 7 9 8 4 2 7 7 7 7 7 8 9 7 7 8 7 8 9 8 7 6 5 6 6 5 4 5 5 6 5 5 4 1 11 13 18 19 21 22 22 21 21 20 20 19 19 19
7 10 7 8 8 11 13 12 11 12 14 12 8 8 9 9 9 8 8 8 8 8 9 8 8 8 7 7 7 5 5 6 6 6 5 4 4 5 3 8 8 5 5 7 8 7 8 8 8 8 7 8 8 8 7 8 8 9 7 7 6 6 5 4 4 4 5 5 5 5 2 12 14 18 19 21 23 22 23 23 21 20 19 19 19
7 11 9 7 8 13 13 13 13 12 13 12 10 8 8 9 10 9 9 10 9 10 9 10 9 9 8 7 7 6 6 7 7 6 7 9 5 2 5 5 5 4 5 6 9 7 7 9 9 8 8 7 8 7 7 7 7 9 10 8 7 6 5 4 5 5 5 6 4 5 6 8 11 12 18 21 21 22 21 22 21 20 20 19 19
10 12 7 6 10 8 11 14 14 14 12 12 10 8 8 8 9 10 10 9 10 10 10 9 9 8 7 8 7 7 6 7 9 8 6 10 8 6 5 7 5 5 6 6 7 8 7 9 10 10 7 7 6 7 7 7 6 6 8 7 7 7 6 5 4 6 5 5 5 5 8 6 11 13 16 21 23 24 24 23 21 21 20 20 20
13 10 9 9 8 7 11 15 15 13 13 11 11 9 9 9 10 10 10 10 10 10 9 9 9 9 9 8 8 7 7 8 10 10 9 9 9 6 6 7 8 6 7 7 6 8 6 7 10 10 10 9 6 5 7 8 7 7 6 7 6 5 5 6 6 5 5 6 5 5 6 3 6 13 14 18 20 22 23 23 22 19 19 20 19
10 11 11 10 6 7 12 15 14 13 11 12 13 11 11 9 11 10 10 10 11 9 9 9 9 10 10 10 10 8 8 8 11 12 9 9 9 7 7 7 8 5 6 8 7 9 8 8 10 10 11 8 7 7 7 8 7 6 6 6 6 5 5 4 4 5 5 5 5 5 5 4 6 10 14 16 18 21 22 22 23 21 18 18 17
11 12 9 9 8 11 12 12 14 13 12 13 12 12 11 11 12 9 10 12 11 10 9 9 10 10 10 11 11 7 8 9 11 11 10 9 9 9 8 9 8 6 5 7 8 9 9 6 7 9 8 12 7 6 7 8 7 6 6 6 5 5 4 4 5 5 5 5 5 5 6 8 12 14 14 17 18 19 21 22 21 21 19 18 18
9 10 12 11 11 11 11 13 14 13 13 15 13 12 11 10 10 13 12 11 11 11 11 11 10 10 10 11 10 9 8 9 10 12 11 10 9 8 10 9 9 8 7 8 9 7 8 8 6 8 9 10 10 7 6 8 8 6 6 5 5 5 4 5 5 5 5 5 4 6 5 7 9 11 12 12 14 19 21 21 21 20 20 18 18
10 10 11 10 9 7 8 8 11 13 15 14 12 11 12 12 11 9 10 11 11 10 11 10 9 9 10 11 11 11 9 7 10 11 10 9 9 6 7 8 8 10 9 8 9 7 8 9 9 9 10 11 10 9 9 7 6 6 6 6 6 5 5 6 5 5 4 5 4 3 6 6 6 6 7 12 13 14 17 20 19 19 21 20 18
13 13 12 12 12 9 8 8 10 13 13 13 13 12 11 11 11 9 9 10 11 11 10 10 9 9 9 9 11 10 10 10 8 12 10 11 10 10 10 10 10 10 10 9 9 7 8 9 9 10 9 11 10 8 9 9 9 7 6 4 5 5 5 6 5 5 5 6 4 4 5 6 6 6 6 6 5 12 16 18 20 20 19 20 20
17 16 14 13 10 10 9 10 11 12 13 13 13 13 12 10 10 10 11 11 10 10 9 10 8 8 10 10 12 10 11 11 11 11 11 10 11 11 8 8 12 10 10 10 10 9 8 9 8 11 11 10 11 8 7 8 6 7 6 6 5 5 5 5 6 5 4 5 5 6 5 6 7 7 5 6 6 9 13 12 18 17 17 20 21
14 16 14 14 14 12 9 11 12 12 14 14 14 13 10 10 11 11 12 12 11 9 10 10 10 9 10 10 12 11 12 13 12 12 11 13 10 9 8 8 11 12 11 11 10 10 10 9 8 8 11 11 12 11 7 8 7 8 5 6 5 7 6 4 6 5 4 6 8 6 6 6 7 10 6 6 7 7 10 14 13 12 11 15 20
14 15 13 14 13 12 9 9 10 12 13 13 14 15 14 11 8 9 10 11 13 11 9 9 9 10 10 10 13 11 11 12 13 12 11 11 12 11 9 10 10 12 10 9 9 10 10 10 10 8 10 10 10 12 9 8 8 7 6 7 5 5 4 6 5 5 4 7 7 6 5 5 8 9 8 7 7 7 8 11 15 16 14 12 11
12 13 15 13 13 13 11 10 11 11 11 12 11 11 14 14 11 7 7 9 11 11 11 10 10 9 11 12 12 11 10 13 13 13 11 11 12 11 11 10 10 12 12 11 8 8 9 9 11 8 8 11 12 12 12 9 10 8 7 7 6 4 4 5 4 7 4 4 7 6 5 4 6 9 9 8 7 7 8 6 6 7 10 14 13
15 15 15 14 14 14 11 11 10 11 10 10 9 10 8 10 11 10 9 9 8 10 11 13 12 11 11 11 11 11 11 10 11 14 11 12 10 12 14 12 10 12 14 13 11 10 12 12 11 10 9 6 6 10 11 11 9 10 8 8 6 4 4 4 4 6 5 2 7 6 6 4 4 7 9 9 8 7 8 8 7 7 8 11 14
16 17 17 16 14 12 12 12 11 11 9 9 9 9 11 7 9 14 14 11 10 12 12 13 13 12 12 12 13 12 10 10 10 12 14 12 11 10 12 12 8 11 12 14 14 13 12 12 12 10 12 12 8 9 11 14 13 8 6 8 7 4 4 5 4 4 5 2 5 6 5 5 4 6 6 7 9 8 8 8 8 6 7 7 7
17 17 17 16 14 12 11 13 11 9 11 11 11 10 9 11 11 9 8 11 12 11 10 12 13 13 15 14 13 12 12 10 9 9 12 15 13 12 12 13 12 10 11 12 14 11 12 11 11 10 7 13 10 12 11 13 10 10 8 4 5 5 5 5 4 3 3 1 4 6 5 6 5 4 3 6 7 8 8 7 7 7 7 7 5
13 13 13 14 15 13 10 10 11 11 10 11 10 11 10 11 13 12 11 9 9 10 10 8 10 12 12 13 13 12 13 12 11 10 10 13 14 13 13 14 15 11 10 11 13 13 12 13 14 13 10 7 8 9 13 13 10 10 10 9 5 4 1 3 3 4 3 1 2 4 5 6 5 3 2 5 5 5 6 6 7 7 6 6 5
15 15 15 15 12 13 13 12 11 12 11 13 11 12 13 14 12 14 13 13 11 10 12 12 8 9 13 13 11 12 13 13 15 12 11 12 14 14 12 13 15 14 12 11 12 13 12 12 12 14 14 11 8 8 9 8 12 14 9 7 7 7 5 5 4 0 2 2 1 3 4 5 4 4 3 5 5 4 4 4 7 6 6 5 4
14 15 14 14 12 15 15 15 11 11 11 13 14 12 10 11 10 13 12 12 7 7 8 9 12 12 9 9 11 14 16 16 15 15 12 13 13 13 12 13 16 14 13 13 13 14 14 14 14 13 13 15 13 10 7 6 16 15 13 8 5 4 9 7 7 1 1 2 0 1 2 4 4 3 3 4 3 3 3 5 5 5 5 5 4
17 14 13 14 15 15 16 15 13 12 11 13 14 13 10 10 10 11 12 11 13 10 11 10 10 12 13 12 15 15 14 14 12 13 11 12 12 15 15 13 14 13 13 13 13 12 13 15 15 15 15 14 16 14 10 5 10 11 14 14 9 7 13 8 12 9 1 1 1 2 2 2 3 3 3 4 4 3 1 4 4 5 4 3 3
15 15 14 16 16 15 16 16 14 13 13 12 13 12 12 11 13 14 16 14 11 12 11 10 10 13 15 15 13 13 13 14 13 12 12 15 12 12 13 16 14 14 12 13 13 15 14 14 10 11 13 13 13 15 15 13 4 3 6 3 6 6 10 14 13 7 6 3 1 0 1 3 2 3 3 3 3 3 2 2 3 3 3 2 2
14 14 14 14 17 17 17 17 14 14 13 13 13 12 12 13 13 14 14 15 14 13 12 11 10 9 11 14 12 11 12 13 13 12 12 13 13 12 11 11 14 14 13 14 14 13 13 12 14 14 11 11 14 15 15 13 15 11 8 7 6 10 16 10 8 14 14 13 7 1 2 2 2 2 1 2 2 3 4 2 3 3 2 2 2
14 14 15 15 14 16 16 17 18 16 14 16 15 15 12 13 13 12 13 13 15 13 11 12 12 12 11 11 13 13 12 12 14 13 12 13 13 13 13 14 14 14 13 13 13 14 16 15 14 12 12 11 13 13 14 15 14 12 10 5 7 8 9 3 10 4 8 11 8 9 7 2 2 1 1 1 1 1 0 1 1 2 2 3 2
12 13 14 14 14 15 17 18 19 16 15 16 16 18 17 14 12 12 14 14 12 13 13 14 14 13 14 11 10 12 13 13 13 14 14 15 16 14 14 15 15 14 13 14 14 15 15 16 17 15 15 16 12 12 13 13 12 10 12 11 10 7 8 5 8 10 1 11 12 14 12 11 10 3 1 1 2 1 1 0 1 1 2 2 2
11 12 14 14 13 14 16 18 18 16 17 18 17 18 17 16 14 13 14 15 16 14 14 14 13 15 16 15 12 11 11 13 13 13 15 16 15 14 14 15 14 13 13 14 14 15 15 15 15 15 15 16 12 11 12 12 10 10 11 8 14 15 13 16 14 14 11 7 3 9 8 8 8 6 1 2 2 2 2 1 0 1 1 2 2
Wind_Direction
216 219 214 216 212 191 191 195 197 197 198 202 202 204 209 214 211 211 219 217 214 208 202 198 196 197 200 200 203 211 213 211 213 211 209 208 207 211 214 222 227 229 233 231 227 221 216 213 204 177 170 178 180 158 160 163 155 151 151 149 146 144 142 139 138 137 138 134 129 125 125 130 130 127 124 120 117 111 108 115 122 117 116 116 115
142 205 205 207 215 206 191 194 197 200 200 203 206 208 211 210 207 206 208 213 217 214 214 213 210 211 210 211 214 214 214 215 218 218 214 213 212 215 218 222 225 225 229 233 228 224 218 214 203 177 173 187 162 163 167 156 153 152 148 145 142 144 143 135 133 134 133 132 128 126 130 133 135 132 128 125 122 117 112 114 119 121 116 120 118
275 208 195 213 219 208 199 194 196 200 202 206 205 211 211 204 207 208 208 208 212 213 217 220 226 226 223 222 223 223 217 217 217 216 216 215 214 217 222 225 224 225 227 230 228 224 219 214 194 181 170 183 165 164 170 151 149 148 144 140 137 140 129 129 129 130 128 129 129 132 132 135 138 137 133 129 126 120 117 116 115 116 120 120 117
265 202 186 211 224 213 203 198 197 199 204 207 207 210 209 209 208 207 208 206 208 210 213 216 221 226 231 233 234 228 223 222 219 218 216 219 217 216 223 231 230 227 226 229 227 224 220 214 195 174 177 184 161 185 151 145 143 138 125 122 123 120 119 121 125 126 125 128 132 139 143 141 143 144 138 133 130 126 118 115 115 119 122 120 118
234 208 191 205 218 223 207 202 203 201 204 210 212 209 215 215 212 211 208 207 207 210 210 213 219 222 229 233 235 231 224 224 222 220 219 220 220 219 223 229 233 232 229 227 228 221 219 219 190 173 173 167 174 175 160 147 143 144 131 124 124 122 118 118 120 123 118 113 108 133 146 146 144 146 141 135 130 125 120 120 122 123 123 121 119
207 206 195 198 215 229 239 210 217 207 207 210 212 212 217 216 214 212 206 206 207 211 214 212 217 225 226 226 228 228 228 228 229 227 224 226 224 223 222 228 232 236 230 228 225 217 214 196 187 178 164 164 163 167 152 143 140 137 132 128 130 121 119 120 117 120 114 96 103 129 144 147 144 144 143 137 128 122 121 124 121 118 119 118 121
189 195 194 193 199 207 256 223 233 218 212 211 214 216 215 215 221 222 210 206 208 214 215 214 220 226 229 224 222 224 234 235 236 234 232 235 234 230 229 225 230 233 229 228 223 213 202 178 186 173 155 166 168 164 154 143 138 138 127 133 134 120 118 117 118 119 111 117 129 136 148 148 147 147 146 140 133 133 133 127 123 120 121 121 118
181 194 196 191 190 199 215 227 243 254 220 213 216 217 218 213 223 229 228 215 213 217 217 217 220 226 229 225 236 260 252 273 261 233 243 242 238 237 238 233 230 229 230 226 220 211 197 179 176 166 162 163 164 156 147 139 143 144 134 138 135 123 115 118 120 113 96 104 105 140 149 147 146 147 147 142 142 140 134 128 121 119 120 117 113
198 192 185 192 194 194 207 223 243 254 278 228 219 222 219 217 220 233 242 238 222 224 223 224 224 228 235 200 195 243 237 220 271 279 246 255 256 248 238 234 228 226 227 226 218 200 181 177 179 168 162 166 158 144 148 147 147 141 135 133 132 121 115 124 120 105 107 94 115 134 148 148 149 144 146 142 138 131 121 122 120 118 120 117 120
203 189 187 191 195 195 200 211 226 235 249 255 230 228 226 221 217 227 236 242 236 232 230 234 236 200 93 141 176 240 261 256 239 257 273 264 265 265 255 245 229 222 227 226 217 197 186 182 180 175 163 159 149 146 145 142 139 132 139 129 127 121 116 113 105 109 108 122 129 134 134 132 147 142 141 129 128 121 120 114 114 120 124 125 117
199 198 195 203 199 199 201 206 213 219 227 240 246 230 231 225 220 228 236 241 236 224 230 165 117 134 160 154 195 222 238 253 254 246 247 269 270 261 251 236 229 221 224 226 217 197 192 189 174 175 173 155 145 146 142 140 138 143 140 132 130 124 117 110 115 114 122 122 128 135 110 123 135 132 131 127 125 117 117 116 118 125 123 121 120
197 210 216 212 207 208 213 212 213 211 211 229 241 237 238 236 229 235 244 236 233 226 165 167 127 137 168 182 199 218 236 250 258 257 245 247 267 267 246 230 231 223 224 227 218 197 188 187 165 173 165 145 140 147 142 142 144 145 139 131 126 121 113 109 114 114 121 121 122 132 130 140 138 140 134 129 124 123 123 123 122 122 122 120 119
204 225 218 225 224 222 219 222 222 223 217 213 226 233 240 241 243 244 249 242 222 198 163 143 151 163 177 199 208 218 231 239 243 232 240 253 251 245 234 219 233 230 228 228 219 192 178 183 170 170 160 151 147 145 144 146 146 143 138 131 126 116 107 115 116 114 117 120 121 124 134 135 120 143 126 128 125 126 126 124 123 122 117 117 117
231 246 229 221 229 240 229 222 224 227 226 218 219 231 238 238 240 248 250 246 212 167 170 172 168 187 186 196 203 213 219 229 227 226 230 250 263 246 231 218 228 227 223 224 205 191 183 172 170 169 162 157 151 150 149 149 148 147 144 131 128 120 117 115 119 108 104 103 104 118 127 124 134 128 124 123 124 121 119 122 124 119 116 114 116
205 225 227 224 226 230 234 226 223 224 227 221 218 225 238 242 237 245 253 244 190 173 170 169 166 184 199 201 208 220 224 224 219 219 229 248 259 252 226 216 221 216 210 216 194 183 181 172 163 160 158 149 147 140 143 147 142 137 133 129 125 126 130 129 124 107 101 98 107 123 118 130 127 127 127 124 121 117 118 116 117 120 117 118 117
256 236 222 218 220 225 229 234 228 222 224 223 219 222 238 244 240 246 251 213 188 173 167 169 173 179 191 201 208 212 212 208 211 218 229 242 259 257 222 214 209 193 201 201 185 176 182 178 173 160 145 140 138 144 146 143 141 136 131 126 125 128 130 132 117 104 103 101 98 93 106 128 133 127 129 126 119 119 119 123 128 122 118 118 114
267 249 239 230 226 224 226 234 236 234 234 229 225 226 223 235 242 245 259 186 175 171 167 172 185 186 194 208 214 217 209 208 206 212 222 234 247 241 209 202 193 174 177 202 189 173 172 170 162 144 142 144 140 140 144 136 120 126 112 114 115 119 123 121 104 98 100 95 102 97 91 130 132 129 118 118 118 121 124 122 120 114 113 108 104
236 240 238 234 232 227 227 233 241 238 231 227 227 218 212 223 233 239 252 182 165 165 166 173 185 187 202 215 217 219 218 210 207 206 215 224 239 211 184 156 178 179 172 188 184 179 170 158 161 139 138 138 145 146 136 119 126 130 115 113 102 112 110 106 95 94 91 102 105 104 42 131 129 129 128 129 125 123 122 118 115 112 108 107 110
230 231 234 231 231 226 227 232 237 239 230 224 220 214 208 215 227 234 233 182 168 168 171 177 189 193 207 224 230 236 223 214 208 204 211 215 225 184 155 131 82 188 167 177 172 174 154 156 157 143 144 147 148 138 127 130 134 130 130 122 113 103 96 91 86 92 98 115 132 155 139 126 130 133 131 131 125 123 117 116 114 111 110 112 114
230 228 230 229 225 222 220 224 229 233 230 224 220 218 210 217 227 234 217 181 172 167 170 180 182 182 212 226 230 236 218 215 218 210 206 205 195 169 166 127 106 153 155 166 172 160 146 158 146 144 134 138 134 126 120 108 110 109 104 104 119 119 114 101 85 83 94 103 125 131 121 134 140 141 134 131 122 118 119 115 117 116 117 117 117
232 229 227 225 221 224 226 230 227 229 233 230 223 223 217 212 219 225 204 180 169 170 173 175 169 182 203 224 222 227 207 189 201 201 200 204 149 172 158 139 132 122 145 172 163 141 149 145 140 141 134 128 121 122 126 129 120 117 112 111 109 93 99 91 84 89 78 92 112 122 136 131 140 139 133 131 127 123 120 119 117 117 115 115 113
223 229 226 223 222 221 223 227 232 230 226 226 223 223 220 215 210 203 196 179 169 165 168 173 180 183 194 212 213 211 183 174 182 178 172 163 92 49 311 147 141 132 134 133 139 136 141 141 144 141 134 135 136 137 144 125 118 112 107 102 97 110 106 105 98 85 92 91 109 141 133 128 141 138 134 131 124 123 124 122 120 118 117 119 114
239 229 229 215 219 223 222 223 226 226 222 218 218 223 217 209 209 193 188 178 168 168 170 170 182 184 171 190 191 187 181 169 171 168 168 146 133 97 134 210 144 146 148 149 141 141 144 151 155 149 137 134 133 136 128 123 113 108 107 95 106 106 102 103 107 106 100 96 121 151 146 148 148 136 133 133 127 124 123 119 118 119 120 117 115
235 220 228 214 215 220 223 220 220 221 219 215 211 215 217 208 208 203 183 177 172 174 171 173 180 187 180 176 192 173 170 161 150 167 105 44 139 130 162 181 195 156 144 153 155 155 152 155 156 135 125 123 121 123 121 118 119 121 113 120 108 99 98 107 111 109 104 100 101 144 147 159 146 143 135 129 125 122 119 119 119 117 117 118 118
239 238 241 223 216 219 220 221 217 219 219 217 205 209 207 204 204 205 187 179 176 175 175 175 181 190 182 181 182 163 154 155 148 127 145 188 150 176 162 163 132 197 130 134 135 147 148 146 130 116 118 122 122 129 123 118 116 117 118 113 110 106 107 114 106 105 106 112 108 131 129 170 154 147 134 131 122 125 125 124 123 122 121 121 124
243 231 231 219 218 217 217 219 216 219 218 217 202 203 195 197 199 201 191 184 179 181 179 179 182 189 184 184 159 158 144 145 143 138 134 173 181 153 157 148 169 166 144 118 114 118 110 104 108 102 99 110 117 118 118 124 124 118 111 107 107 102 97 81 89 113 122 117 125 137 210 157 156 144 140 131 128 130 127 124 121 120 121 123 124
234 243 237 229 220 216 216 213 214 215 219 220 206 195 195 198 196 194 188 191 186 179 186 184 186 183 183 175 165 162 145 145 141 141 126 122 195 145 129 142 168 149 143 124 119 117 117 113 100 99 102 103 108 115 116 116 122 121 116 105 99 99 80 82 93 103 119 116 125 126 41 161 170 145 141 134 132 131 126 123 122 124 123 126 128
276 260 255 242 225 221 212 208 216 212 215 217 213 192 196 194 193 189 196 188 187 191 190 191 182 185 181 178 177 161 158 152 141 145 146 175 172 177 166 139 143 138 124 124 125 112 110 114 111 105 105 108 115 114 109 112 123 126 122 119 107 98 90 89 120 119 121 125 112 77 80 91 124 137 141 134 132 128 123 122 129 128 128 133 132
275 261 278 272 246 237 217 216 216 213 213 209 210 197 190 195 188 189 196 186 193 195 193 183 182 183 180 175 170 170 167 155 149 152 157 177 173 188 181 152 148 142 129 123 125 128 124 126 121 119 112 107 113 115 114 113 112 109 115 113 115 112 115 124 126 123 124 125 99 72 55 90 122 139 145 137 134 129 127 129 130 129 133 132 130
257 280 281 258 260 241 231 225 220 214 212 202 209 203 194 193 188 191 193 183 198 196 191 189 191 179 184 184 185 168 166 164 155 155 167 181 170 189 174 152 147 148 141 134 133 126 126 126 127 128 127 124 112 116 124 120 113 109 107 115 106 110 121 134 138 132 131 120 109 88 60 80 148 151 146 135 136 132 130 132 130 131 134 133 131
277 272 266 259 256 240 233 229 224 218 210 208 209 205 196 192 192 189 187 191 196 190 191 194 193 190 186 184 184 173 166 165 159 161 176 179 172 171 167 156 141 144 151 140 144 135 134 142 142 141 136 129 125 130 126 117 108 108 115 112 116 111 94 105 112 119 109 106 107 100 85 130 163 129 128 136 136 134 136 134 136 138 139 137 134
289 274 267 267 256 238 236 231 226 218 214 215 213 208 199 196 194 186 189 193 189 191 193 195 194 197 189 182 182 175 165 170 164 165 172 178 179 166 162 160 147 138 143 142 138 135 135 134 136 129 130 128 121 123 126 123 118 114 116 109 116 114 119 122 111 111 113 114 96 87 104 117 123 130 135 137 138 135 135 130 134 136 137 137 135
298 280 282 281 258 252 247 237 228 220 214 219 218 212 207 198 198 200 198 188 188 193 195 196 195 196 193 186 180 174 172 170 171 168 168 175 175 179 165 164 150 142 138 138 129 126 126 127 123 123 121 118 121 107 110 121 119 120 124 116 119 105 108 108 107 103 106 104 104 122 109 109 116 124 135 129 136 143 137 133 133 135 138 138 135
312 309 301 282 266 263 253 248 231 220 215 217 217 216 210 207 200 199 197 191 192 193 199 196 190 196 197 194 183 180 177 172 168 165 162 162 160 163 161 157 150 140 136 136 131 139 135 135 140 135 135 130 128 132 129 120 117 122 118 121 110 108 121 105 95 105 107 101 99 90 115 113 118 107 99 119 144 134 136 135 134 135 137 134 138
335 334 323 300 289 271 263 253 239 229 218 217 218 220 216 208 203 196 195 193 192 197 196 195 191 195 197 200 193 180 182 179 170 164 159 160 161 171 178 162 148 143 139 140 135 138 137 144 146 137 142 133 132 136 135 136 137 133 127 124 114 116 108 113 112 106 111 102 104 106 114 114 115 106 100 91 100 144 146 137 135 139 139 134 133
346 341 335 326 304 289 269 259 253 241 229 219 218 221 224 220 210 202 200 196 199 195 194 195 192 188 194 199 200 188 183 181 177 168 162 163 165 174 166 159 148 144 144 142 138 143 146 148 153 145 139 136 132 126 128 130 124 120 128 120 113 114 117 114 102 88 89 113 113 112 112 122 130 120 107 95 92 86 86 121 133 139 142 137 136
344 347 341 332 326 315 293 270 260 251 240 228 219 221 221 222 219 209 202 197 202 200 198 196 195 188 189 199 199 195 188 183 175 171 163 166 162 160 156 179 152 147 148 149 146 148 152 150 156 159 142 141 136 130 124 118 119 123 118 102 110 131 129 116 109 117 99 116 118 117 116 131 129 119 104 103 96 85 83 91 99 103 117 137 141
347 347 342 331 321 318 307 291 277 264 248 238 226 218 221 225 217 213 206 201 199 200 201 196 197 193 192 199 199 197 192 182 175 168 166 163 161 155 158 170 159 143 144 148 148 146 148 153 150 161 144 138 135 135 131 130 122 111 103 96 93 77 110 111 111 113 127 119 106 107 119 139 135 119 115 104 102 97 96 84 93 97 95 87 111
349 345 343 339 331 321 317 304 289 276 267 252 239 238 227 223 226 228 219 207 198 197 193 197 202 196 197 198 198 199 193 188 172 165 167 166 165 157 154 172 170 147 144 146 137 145 144 148 147 153 146 146 147 144 140 131 115 106 96 70 72 75 66 96 114 110 77 107 113 116 113 112 132 128 125 127 118 114 100 91 79 89 91 96 100
348 350 347 347 341 332 323 312 297 287 281 272 254 237 224 217 216 219 226 217 206 201 198 197 197 204 198 194 197 201 198 186 167 168 165 170 167 162 155 168 177 152 151 149 151 158 159 147 143 147 133 107 116 127 126 114 97 98 101 82 56 38 45 79 92 106 102 83 112 110 107 109 99 119 131 131 126 119 112 113 101 97 95 102 105
350 350 349 349 345 335 323 312 305 300 288 276 257 244 237 236 214 207 211 215 215 206 201 200 200 201 197 194 195 202 198 187 177 165 168 164 167 165 155 152 170 163 159 159 158 162 160 149 143 144 144 136 133 139 136 126 115 77 65 89 76 43 43 41 55 72 93 133 113 108 115 112 106 110 119 128 128 124 125 122 120 113 109 111 104
347 345 347 341 341 341 331 315 304 296 286 274 265 252 249 238 238 227 215 208 207 211 214 200 197 196 191 190 188 195 196 190 181 173 167 166 162 166 165 160 164 175 171 162 150 142 144 146 144 138 156 148 150 155 154 131 135 136 128 111 78 59 53 42 32 36 76 118 108 113 121 116 105 100 60 110 112 123 125 128 120 115 115 106 108
337 338 336 340 341 343 339 318 309 298 285 276 269 262 251 242 238 235 223 222 217 215 208 214 204 188 192 188 186 189 194 195 185 178 172 171 165 167 170 167 166 162 159 158 151 151 153 155 157 150 150 141 135 169 162 160 144 141 132 109 139 123 53 47 26 21 358 12 83 125 128 122 111 75 96 100 105 105 114 123 118 117 109 112 113
342 341 342 342 341 339 339 336 320 307 291 283 271 262 254 254 246 242 236 223 220 212 215 201 200 200 187 186 187 187 193 195 192 182 179 175 170 170 168 169 169 166 158 158 160 156 157 157 161 157 151 142 152 188 190 150 139 136 145 156 155 152 151 235 154 145 341 350 320 130 139 133 116 103 122 109 112 115 113 106 108 111 120 123 125
341 339 339 341 338 338 337 336 327 315 299 289 283 272 266 265 261 255 239 237 234 209 217 216 196 187 183 185 191 193 197 199 195 191 182 176 173 167 165 168 170 168 160 161 164 164 164 164 162 155 165 156 165 171 194 184 162 167 142 106 88 152 202 165 137 135 49 157 67 26 71 108 116 111 105 86 77 75 110 104 97 100 114 126 128
340 339 338 336 338 335 335 335 331 325 316 301 290 284 271 256 250 249 255 225 217 207 204 208 202 194 191 190 199 203 198 197 195 194 188 180 177 174 169 166 172 170 169 166 164 165 163 164 171 165 166 174 164 162 171 227 188 170 171 168 158 166 167 157 156 181 61 5 344 18 32 37 42 78 71 110 114 111 82 120 128 132 135 135 127
336 337 340 339 337 335 333 332 333 330 323 313 299 291 281 261 248 246 245 245 233 225 217 190 193 207 200 190 194 197 197 193 193 194 194 188 176 175 173 173 172 174 166 162 171 169 169 169 164 165 171 164 165 166 169 175 189 249 185 79 111 122 129 148 182 100 159 190 60 345 56 33 33 62 106 135 140 126 114 101 131 123 123 120 132
335 337 338 339 336 334 333 331 331 331 327 323 317 302 282 272 261 250 243 244 239 230 218 210 196 207 211 196 188 192 200 195 193 193 193 188 179 172 172 170 172 173 167 173 172 167 165 166 168 173 165 170 172 170 172 171 175 182 178 142 107 143 156 178 162 174 170 166 182 40 34 32 62 46 55 182 188 171 155 155 141 132 128 125 133
340 341 339 336 335 332 330 329 330 331 329 328 323 314 297 276 267 258 254 243 240 235 225 219 204 195 205 209 190 184 191 198 197 191 192 190 182 177 173 174 174 172 172 170 170 167 166 165 168 169 174 179 180 178 172 177 184 170 157 143 109 133 158 121 155 101 163 160 171 177 170 24 52 47 41 21 348 341 351 136 141 140 152 144 140
336 337 336 335 335 333 329 328 329 329 327 328 326 321 314 301 277 261 254 254 245 236 224 221 213 200 199 202 202 188 185 188 192 194 192 191 190 180 176 176 174 171 174 171 169 169 168 169 172 174 173 177 184 179 180 179 184 162 179 166 152 127 141 133 181 174 138 185 166 184 177 169 179 160 38 60 15 12 5 6 145 156 148 145 142
331 337 338 336 333 331 328 326 325 324 326 328 331 327 322 318 300 279 263 254 250 243 233 225 220 210 205 198 192 195 189 187 186 190 193 190 188 180 179 179 174 169 175 170 170 172 172 173 173 172 176 176 177 173 179 183 175 159 172 169 175 173 172 179 178 182 169 169 152 167 164 186 166 136 86 16 44 36 33 35 49 122 127 137 145